Location: Laan Hart van Zuid
(52.2563°N, 6.7904°E)
Time: 23:14:44
(UTC+01:00)

ACS3 Solar Sail - Pass Details

Date: 25 January 2026
Orbit: 899 x 968 km, 97.2° (Epoch: 14 February)

Event Time Altitude Azimuth Distance (km) Brightness Sun altitude
Rises 04:26:34 0° 8° (N) 3,631 5.1 -35.9°
Reaches altitude 10° 04:29:20 10° 358° (N) 2,670 4.2 -35.5°
Enters shadow 04:29:38 11° 356° (N) 2,572 4.1 -35.4°
